Weather History for KEDJ - October, 2012

Change the Weather History Date:

Saturday, October 6, 2012

  Actual Average (KDAY) Record (KDAY)
Temperature  
Mean Temperature 43 °F 57 °F  
Max Temperature 51 °F 67 °F 87 °F (1963)
Min Temperature 35 °F 47 °F 27 °F (1980)
Degree Days  
Heating Degree Days 22 9  
Month to date heating degree days 47  
Since 1 July heating degree days 137  
Cooling Degree Days 0 1  
Month to date cooling degree days 6  
Year to date cooling degree days 887  
Moisture  
Dew Point 36 °F    
Average Humidity 78    
Maximum Humidity 100    
Minimum Humidity 50    
Precipitation  
Precipitation 0.05 in 0.10 in 2.78 in (1910)
Month to date precipitation 0.58  
Year to date precipitation 32.19  
Snow  
Snow 0.00 in 0.00 in - ()
Month to date snowfall 0.0  
Since 1 July snowfall 0.0  
Since 1 September snowfall 0.0  
Snow Depth -    
Sea Level Pressure  
Sea Level Pressure 30.05 in    
Wind  
Wind Speed 7 mph (West)    
Max Wind Speed 14 mph    
Max Gust Speed 18 mph    
Visibility 10 miles    
Events      
T = Trace of Precipitation, MM = Missing Value Source: NWS Daily Summary

Daily Weather History Graph

Daily Weather History Graph

Search for Another Location

Airport or City:

Trip Planner

Search our weather history database for the weather conditions in past years. The results will help you decide how hot, cold, wet, or windy it might be!

Date:

Astronomy

Oct. 06, 2012 Rise Set
Actual Time 7:37 AM EDT 7:08 PM EDT
Civil Twilight 7:10 AM EDT 7:35 PM EDT
Nautical Twilight 6:38 AM EDT 8:07 PM EDT
Astronomical Twilight 6:06 AM EDT 8:38 PM EDT
Moon 11:22 PM EDT (10/6) 1:31 PM EDT (10/6)
Length of Visible Light 12h 25m
Length of Day
11h 31m
Waning Gibbous, 65% of the Moon is Illuminated
Oct 6
Waning Gibbous
Oct 8
Last Quarter
Oct 15
New
Oct 21
First Quarter
Oct 29
Full

Hourly Weather History & Observations

Time (EDT) Temp. Windchill Dew Point Humidity Pressure Visibility Wind Dir Wind Speed Gust Speed Precip Events Conditions
12:10 AM 42.8 °F 38.0 °F 42.8 °F 100% 29.95 in 5.0 mi NE 8.1 mph - 0.02 in   Overcast
12:30 AM 42.8 °F 37.5 °F 42.8 °F 100% 29.99 in 3.0 mi NW 9.2 mph - 0.12 in   Overcast
12:50 AM 41.0 °F 35.8 °F 41.0 °F 100% 29.99 in 3.0 mi NW 8.1 mph - 0.23 in   Overcast
1:10 AM 41.0 °F 33.9 °F 41.0 °F 100% 29.99 in 4.0 mi NW 12.7 mph - 0.04 in   Overcast
1:30 AM 39.2 °F 33.6 °F 39.2 °F 100% 30.01 in 8.0 mi WNW 8.1 mph - 0.05 in   Overcast
1:50 AM 39.2 °F 35.0 °F 39.2 °F 100% 30.01 in 10.0 mi WNW 5.8 mph - 0.05 in   Overcast
2:10 AM 41.0 °F 39.0 °F 41.0 °F 100% 30.01 in 10.0 mi West 3.5 mph - 0.00 in   Overcast
2:50 AM 39.2 °F 33.6 °F 39.2 °F 100% 30.00 in 10.0 mi WNW 8.1 mph - 0.00 in   Overcast
3:10 AM 39.2 °F 34.2 °F 39.2 °F 100% 30.00 in 10.0 mi WNW 6.9 mph - 0.00 in   Overcast
3:30 AM 39.2 °F 35.0 °F 39.2 °F 100% 30.00 in 10.0 mi WNW 5.8 mph - 0.00 in   Mostly Cloudy
3:50 AM 39.2 °F 35.9 °F 39.2 °F 100% 30.00 in 10.0 mi West 4.6 mph - 0.00 in   Mostly Cloudy
4:10 AM 39.2 °F 33.6 °F 39.2 °F 100% 30.00 in 10.0 mi West 8.1 mph - 0.00 in   Mostly Cloudy
4:30 AM 39.2 °F 34.2 °F 39.2 °F 100% 30.00 in 10.0 mi West 6.9 mph - 0.00 in   Partly Cloudy
4:50 AM 37.4 °F 32.1 °F 37.4 °F 100% 30.00 in 10.0 mi West 6.9 mph - 0.00 in   Clear
5:30 AM 37.4 °F 32.1 °F 37.4 °F 100% 30.01 in 10.0 mi West 6.9 mph - 0.00 in   Clear
5:50 AM 37.4 °F 32.1 °F 37.4 °F 100% 30.01 in 10.0 mi West 6.9 mph - 0.00 in   Clear
6:10 AM 37.4 °F 32.8 °F 37.4 °F 100% 30.01 in 10.0 mi West 5.8 mph - 0.00 in   Clear
6:30 AM 35.6 °F 29.9 °F 35.6 °F 100% 30.01 in 10.0 mi West 6.9 mph - 0.00 in   Clear
6:50 AM 35.6 °F 30.7 °F 35.6 °F 100% 30.02 in 10.0 mi WSW 5.8 mph - 0.00 in   Clear
7:10 AM 35.6 °F 30.7 °F 35.6 °F 100% 30.02 in 10.0 mi West 5.8 mph - 0.00 in   Clear
7:30 AM 35.6 °F 30.7 °F 35.6 °F 100% 30.03 in 10.0 mi WSW 5.8 mph - 0.00 in   Clear
7:50 AM 35.6 °F 30.7 °F 35.6 °F 100% 30.04 in 10.0 mi WSW 5.8 mph - 0.00 in   Clear
8:10 AM 35.6 °F 30.7 °F 35.6 °F 100% 30.05 in 10.0 mi WSW 5.8 mph - 0.00 in   Clear
8:30 AM 35.6 °F 29.9 °F 35.6 °F 100% 30.06 in 10.0 mi WSW 6.9 mph - 0.00 in   Clear
8:50 AM 37.4 °F 30.8 °F 35.6 °F 93% 30.07 in 10.0 mi West 9.2 mph - 0.00 in   Clear
9:10 AM 37.4 °F 31.4 °F 35.6 °F 93% 30.07 in 10.0 mi WSW 8.1 mph - 0.00 in   Clear
9:30 AM 39.2 °F 35.9 °F 35.6 °F 87% 30.08 in 10.0 mi West 4.6 mph - 0.00 in   Clear
9:50 AM 39.2 °F 33.0 °F 35.6 °F 87% 30.07 in 10.0 mi West 9.2 mph - 0.00 in   Clear
10:10 AM 42.8 °F 38.0 °F 37.4 °F 81% 30.08 in 10.0 mi West 8.1 mph - 0.00 in   Clear
10:30 AM 42.8 °F 38.0 °F 37.4 °F 81% 30.08 in 10.0 mi West 8.1 mph - 0.00 in   Clear
10:50 AM 44.6 °F 40.2 °F 37.4 °F 76% 30.08 in 10.0 mi West 8.1 mph - 0.00 in   Clear
11:10 AM 44.6 °F 42.2 °F 37.4 °F 76% 30.08 in 10.0 mi West 4.6 mph - 0.00 in   Clear
11:30 AM 46.4 °F 41.5 °F 37.4 °F 71% 30.08 in 10.0 mi WSW 10.4 mph - 0.00 in   Clear
11:50 AM 46.4 °F 42.4 °F 35.6 °F 66% 30.08 in 10.0 mi West 8.1 mph 16.1 mph 0.00 in   Partly Cloudy
12:10 PM 46.4 °F 41.5 °F 35.6 °F 66% 30.08 in 10.0 mi West 10.4 mph - 0.00 in   Partly Cloudy
12:30 PM 48.2 °F - 35.6 °F 62% 30.07 in 10.0 mi WSW 11.5 mph - 0.00 in   Partly Cloudy
12:50 PM 48.2 °F - 35.6 °F 62% 30.08 in 10.0 mi West 8.1 mph - 0.00 in   Clear
1:10 PM 48.2 °F - 35.6 °F 62% 30.08 in 10.0 mi WSW 8.1 mph - 0.00 in   Scattered Clouds
1:30 PM 50.0 °F - 35.6 °F 58% 30.07 in 10.0 mi WSW 11.5 mph 16.1 mph 0.00 in   Partly Cloudy
1:50 PM 50.0 °F - 35.6 °F 58% 30.06 in 10.0 mi WSW 11.5 mph - 0.00 in   Clear
2:10 PM 50.0 °F - 33.8 °F 54% 30.05 in 10.0 mi WNW 12.7 mph 16.1 mph 0.00 in   Clear
2:30 PM 51.8 °F - 33.8 °F 50% 30.05 in 10.0 mi West 9.2 mph - 0.00 in   Clear
2:50 PM 51.8 °F - 33.8 °F 50% 30.05 in 10.0 mi West 8.1 mph - 0.00 in   Clear
3:10 PM 51.8 °F - 33.8 °F 50% 30.04 in 10.0 mi WNW 10.4 mph - 0.00 in   Clear
3:30 PM 51.8 °F - 33.8 °F 50% 30.05 in 10.0 mi West 8.1 mph - 0.00 in   Clear
3:50 PM 51.8 °F - 33.8 °F 50% 30.04 in 10.0 mi WNW 11.5 mph 16.1 mph 0.00 in   Clear
4:10 PM 51.8 °F - 33.8 °F 50% 30.04 in 10.0 mi WNW 12.7 mph 17.3 mph 0.00 in   Clear
4:30 PM 51.8 °F - 33.8 °F 50% 30.04 in 10.0 mi WNW 9.2 mph 16.1 mph 0.00 in   Clear
4:50 PM 51.8 °F - 33.8 °F 50% 30.04 in 10.0 mi NW 13.8 mph 18.4 mph 0.00 in   Clear
5:10 PM 51.8 °F - 33.8 °F 50% 30.05 in 10.0 mi WNW 8.1 mph - 0.00 in   Clear
5:30 PM 50.0 °F - 32.0 °F 50% 30.05 in 10.0 mi West 9.2 mph - 0.00 in   Clear
5:50 PM 50.0 °F - 32.0 °F 50% 30.06 in 10.0 mi West 8.1 mph - 0.00 in   Clear
6:10 PM 48.2 °F - 32.0 °F 54% 30.06 in 10.0 mi WNW 9.2 mph - 0.00 in   Clear
6:30 PM 48.2 °F - 33.8 °F 58% 30.07 in 10.0 mi West 8.1 mph - 0.00 in   Clear
6:50 PM 46.4 °F 43.5 °F 32.0 °F 57% 30.08 in 10.0 mi WNW 5.8 mph - 0.00 in   Clear
7:10 PM 44.6 °F 43.1 °F 33.8 °F 66% 30.08 in 10.0 mi WNW 3.5 mph - 0.00 in   Clear
7:30 PM 44.6 °F 41.4 °F 33.8 °F 66% 30.08 in 10.0 mi WNW 5.8 mph - 0.00 in   Clear
7:50 PM 44.6 °F 41.4 °F 33.8 °F 66% 30.09 in 10.0 mi WNW 5.8 mph - 0.00 in   Clear
8:10 PM 42.8 °F 39.3 °F 33.8 °F 70% 30.09 in 10.0 mi WNW 5.8 mph - 0.00 in   Clear
8:30 PM 42.8 °F 39.3 °F 33.8 °F 70% 30.10 in 10.0 mi NW 5.8 mph - 0.00 in   Clear
8:50 PM 42.8 °F 38.6 °F 33.8 °F 70% 30.11 in 10.0 mi NW 6.9 mph - 0.00 in   Clear
9:10 PM 42.8 °F 39.3 °F 33.8 °F 70% 30.12 in 10.0 mi NNW 5.8 mph - 0.00 in   Scattered Clouds
9:30 PM 42.8 °F - 35.6 °F 76% 30.12 in 10.0 mi Calm Calm - 0.00 in   Scattered Clouds
9:50 PM 41.0 °F - 35.6 °F 81% 30.11 in 10.0 mi Calm Calm - 0.00 in   Partly Cloudy
10:10 PM 41.0 °F - 35.6 °F 81% 30.11 in 10.0 mi Calm Calm - 0.00 in   Clear
10:30 PM 41.0 °F - 37.4 °F 87% 30.10 in 10.0 mi Calm Calm - 0.00 in   Clear
10:50 PM 42.8 °F 40.1 °F 33.8 °F 70% 30.11 in 10.0 mi NW 4.6 mph - 0.00 in   Clear
11:10 PM 42.8 °F 40.1 °F 33.8 °F 70% 30.11 in 10.0 mi NW 4.6 mph - 0.00 in   Clear
11:30 PM 42.8 °F - 33.8 °F 70% 30.11 in 10.0 mi Calm Calm - 0.00 in   Clear
11:50 PM 42.8 °F - 35.6 °F 76% 30.11 in 10.0 mi Calm Calm - 0.00 in   Scattered Clouds